Regional Weather Roundup
Issued by NWS

Home | Current Version | Previous Version | Graphics & Text | Print | Product List | Glossary On
Versions: 1 2 3 4 5 6 7 8 9 10 11 12 13 14 15 16 17 18 19 20 21 22 23 24 25 26 27 28 29 30 31 32 33 34 35 36 37 38 39 40 41 42 43 44 45 46 47 48 49 50
000
ASUS43 KLSX 201757
RWRMO

WEATHER SUMMARY FOR MISSOURI
NATIONAL WEATHER SERVICE SPRINGFIELD MO
1200 PM CST MON NOV 20 2017

NOTE: "FAIR" INDICATES FEW OR NO CLOUDS BELOW 12,000 FEET WITH NO
       SIGNIFICANT WEATHER AND/OR OBSTRUCTIONS TO VISIBILITY.
       CURRENT SKY AND/OR WEATHER CONDITIONS ARE NOT AVAILABLE FOR
       CHILLICOTHE AND FARMINGTON.

MOZ001>031-035>038-043-044-053-054-201900-
...NORTHERN AND WESTERN MISSOURI...

CITY           SKY/WX    TMP DP  RH WIND       PRES   REMARKS
KANSAS CTY INT MOSUNNY   59  28  30 SW24G40   29.83F
6HR MIN TEMP:  43; 6HR MAX TEMP:  59;

LEE`S SUMMIT   SUNNY     59  30  33 SW31G41   29.86F
6HR MIN TEMP:  41; 6HR MAX TEMP:  59;

ST JOSEPH      SUNNY     59  26  28 SW23G36   29.79F
6HR MIN TEMP:  43; 6HR MAX TEMP:  60;

CHILLICOTHE      N/A     60  30  32 SW15G26   29.84F
6HR MIN TEMP:  39; 6HR MAX TEMP:  60;


$$
MOZ066>068-077>081-088>096-101>105-201900-
...SOUTHWEST MISSOURI...

CITY           SKY/WX    TMP DP  RH WIND       PRES   REMARKS
SPRINGFIELD    SUNNY     58  31  35 S21       30.00F
6HR MIN TEMP:  36; 6HR MAX TEMP:  58;

JOPLIN         SUNNY     59  30  33 S26G39    29.99F
6HR MIN TEMP:  44; 6HR MAX TEMP:  59;

BRANSON        MOSUNNY   57  25  28 S7G16     30.06F

$$
MOZ032>034-039>042-045>050-055>058-069>072-201900-
...CENTRAL MISSOURI...

CITY           SKY/WX    TMP DP  RH WIND       PRES   REMARKS
COLUMBIA       NOT AVBL
JEFFERSON CITY SUNNY     58  28  32 SW14G23   29.96F
6HR MIN TEMP:  39; 6HR MAX TEMP:  58;

ROLLA          SUNNY     58  26  29 S22G35    29.99F
6HR MIN TEMP:  37; 6HR MAX TEMP:  58;

SEDALIA        SUNNY     59  32  36 SW24G33   29.93F
6HR MIN TEMP:  42; 6HR MAX TEMP:  59;

WARRENSBURG    SUNNY     59  30  33 S23G32    29.90F

$$
MOZ051-052-059>065-201900-
...EAST CENTRAL MISSOURI...

CITY           SKY/WX    TMP DP  RH WIND       PRES   REMARKS
ST LOUIS INTL  MOSUNNY   57  26  30 SW18G28   30.00F
6HR MIN TEMP:  36; 6HR MAX TEMP:  57;


$$
MOZ072>076-082>087-097>100-106>115-201900-
...SOUTH CENTRAL AND SOUTHEAST MISSOURI...

CITY           SKY/WX    TMP DP  RH WIND       PRES   REMARKS
CAPE GIRARDEAU SUNNY     48  30  49 S15       30.14F
6HR MIN TEMP:  26; 6HR MAX TEMP:  48;

POPLAR BLUFF   SUNNY     50  31  48 S13       30.15F
6HR MIN TEMP:  24; 6HR MAX TEMP:  50;

WEST PLAINS    SUNNY     54  24  31 S10       30.08F
6HR MIN TEMP:  33; 6HR MAX TEMP:  55;


$$



USA.gov is the U.S. government's official web portal to all federal, state and local government web resources and services.